DAL506 KSEA-KMIA

Flight info

Callsign DAL506
Flight time N/A
Altitude 31000
Route SEA1 SEA NORMY J90 MWH LKT/N0452F330 DBS KU75S CYS HYS RZC LIT IGB MGM OTK ROYES OMN SMYRA MALET DDANY CSTAL3
Aircraft A21N/M-SDE2E3FGHIJ1RWXY/LB1

Departure

Time 2026-05-04 14:29
Airport Seattle–Tacoma International Airport (KSEA)

Arrival

Time N/A
Airport Miami International Airport (KMIA)
Time Latitude Longitude Altitude Speed Heading
2026-05-04 13:30 47.43799 -122.29754 394 ft 0 kts 22°
2026-05-04 14:15 47.43764 -122.29796 392 ft 4 kts 68°
2026-05-04 14:16 47.43761 -122.29867 392 ft 4 kts 105°
2026-05-04 14:16 47.43771 -122.29904 392 ft 4 kts 117°
2026-05-04 14:17 47.43788 -122.29969 391 ft 4 kts 83°
2026-05-04 14:17 47.43782 -122.29990 390 ft 0 kts 42°
2026-05-04 14:21 47.43792 -122.29982 391 ft 3 kts 22°
2026-05-04 14:21 47.43820 -122.29972 392 ft 6 kts 12°
2026-05-04 14:22 47.43877 -122.29953 393 ft 10 kts 12°
2026-05-04 14:22 47.43951 -122.29945 395 ft 12 kts 341°
2026-05-04 14:22 47.44017 -122.30023 394 ft 13 kts 314°
2026-05-04 14:22 47.44055 -122.30142 395 ft 14 kts 266°
2026-05-04 14:23 47.43973 -122.30411 391 ft 15 kts 254°
2026-05-04 14:23 47.43986 -122.30564 389 ft 16 kts 301°
2026-05-04 14:23 47.44082 -122.30639 391 ft 17 kts
2026-05-04 14:24 47.44204 -122.30634 392 ft 18 kts
2026-05-04 14:24 47.44330 -122.30632 398 ft 19 kts
2026-05-04 14:24 47.44464 -122.30631 400 ft 20 kts
2026-05-04 14:24 47.44604 -122.30629 405 ft 20 kts
2026-05-04 14:25 47.44738 -122.30628 408 ft 21 kts
2026-05-04 14:25 47.45046 -122.30625 415 ft 23 kts 360°
2026-05-04 14:25 47.45211 -122.30625 416 ft 24 kts
2026-05-04 14:26 47.45383 -122.30623 426 ft 25 kts
2026-05-04 14:26 47.45564 -122.30620 439 ft 26 kts 359°
2026-05-04 14:26 47.45752 -122.30621 435 ft 27 kts
2026-05-04 14:26 47.45946 -122.30620 435 ft 27 kts
2026-05-04 14:27 47.46100 -122.30618 431 ft 21 kts
2026-05-04 14:27 47.46247 -122.30615 446 ft 17 kts
2026-05-04 14:27 47.46343 -122.30611 448 ft 10 kts
2026-05-04 14:27 47.46379 -122.30675 448 ft 10 kts 270°
2026-05-04 14:28 47.46358 -122.30763 447 ft 9 kts 227°
2026-05-04 14:28 47.46315 -122.30778 447 ft 0 kts 181°
2026-05-04 14:28 47.46289 -122.30779 446 ft 19 kts 181°
2026-05-04 14:29 47.45378 -122.30786 428 ft 136 kts 180°
2026-05-04 14:29 47.43022 -122.30787 1176 ft 178 kts 179°
2026-05-04 14:30 47.41763 -122.30648 1732 ft 184 kts 174°
2026-05-04 14:30 47.40441 -122.30450 2147 ft 198 kts 175°
2026-05-04 14:30 47.37430 -122.30138 2825 ft 240 kts 176°
2026-05-04 14:31 47.35690 -122.29972 3192 ft 259 kts 176°
2026-05-04 14:31 47.31911 -122.29608 4204 ft 280 kts 176°
2026-05-04 14:32 47.28105 -122.28502 5779 ft 282 kts 148°
2026-05-04 14:32 47.26670 -122.26610 6494 ft 283 kts 124°
2026-05-04 14:32 47.25854 -122.23996 7181 ft 283 kts 100°
2026-05-04 14:32 47.25800 -122.21129 7889 ft 281 kts 77°
2026-05-04 14:33 47.26466 -122.18433 8606 ft 281 kts 61°
2026-05-04 14:33 47.27419 -122.15904 9308 ft 283 kts 59°
2026-05-04 14:33 47.28393 -122.13361 10009 ft 286 kts 60°
2026-05-04 14:33 47.29369 -122.10737 10384 ft 300 kts 60°
2026-05-04 14:34 47.30383 -122.07944 10632 ft 318 kts 61°
2026-05-04 14:34 47.31446 -122.04984 10858 ft 335 kts 61°
2026-05-04 14:34 47.32554 -122.01861 11080 ft 352 kts 61°
2026-05-04 14:34 47.33711 -121.98584 11299 ft 368 kts 62°
2026-05-04 14:35 47.34913 -121.95163 11545 ft 382 kts 62°
2026-05-04 14:35 47.36146 -121.91652 12046 ft 387 kts 62°
2026-05-04 14:35 47.37372 -121.88149 12595 ft 390 kts 62°
2026-05-04 14:35 47.38623 -121.84574 13157 ft 393 kts 61°
2026-05-04 14:36 47.39879 -121.80978 13698 ft 396 kts 61°
2026-05-04 14:36 47.41144 -121.77348 14204 ft 398 kts 61°
2026-05-04 14:36 47.42301 -121.73618 14695 ft 402 kts 69°
2026-05-04 14:36 47.42903 -121.69579 15186 ft 408 kts 83°
2026-05-04 14:37 47.42941 -121.65374 15696 ft 412 kts 89°
2026-05-04 14:37 47.42856 -121.61126 16216 ft 414 kts 90°
2026-05-04 14:37 47.42763 -121.56861 16807 ft 417 kts 89°
2026-05-04 14:37 47.42685 -121.52565 17316 ft 420 kts 89°
2026-05-04 14:38 47.42617 -121.48236 17835 ft 424 kts 89°
2026-05-04 14:38 47.42552 -121.43863 18303 ft 427 kts 89°
2026-05-04 14:38 47.42488 -121.39464 18722 ft 430 kts 89°
2026-05-04 14:38 47.42419 -121.35041 19120 ft 432 kts 88°
2026-05-04 14:39 47.42350 -121.30584 19524 ft 435 kts 88°
2026-05-04 14:39 47.42281 -121.26100 19905 ft 438 kts 88°
2026-05-04 14:39 47.42208 -121.21581 20338 ft 441 kts 88°
2026-05-04 14:40 47.42048 -121.12485 21164 ft 445 kts 88°
2026-05-04 14:40 47.41963 -121.07919 21565 ft 447 kts 88°
2026-05-04 14:40 47.41877 -121.03309 21953 ft 450 kts 88°
2026-05-04 14:40 47.41790 -120.98675 22358 ft 453 kts 88°
2026-05-04 14:41 47.41703 -120.94058 22742 ft 457 kts 88°
2026-05-04 14:41 47.41610 -120.89293 23114 ft 459 kts 88°
2026-05-04 14:41 47.41425 -120.79883 23819 ft 463 kts 88°
2026-05-04 14:42 47.41227 -120.70330 24394 ft 467 kts 88°
2026-05-04 14:42 47.41124 -120.65617 24730 ft 468 kts 88°
2026-05-04 14:42 47.41029 -120.61324 24991 ft 471 kts 88°
2026-05-04 14:43 47.40918 -120.56493 25361 ft 470 kts 88°
2026-05-04 14:43 47.40807 -120.51677 25833 ft 468 kts 88°
2026-05-04 14:43 47.40698 -120.46886 26260 ft 467 kts 88°
2026-05-04 14:43 47.40485 -120.42097 26663 ft 469 kts 94°
2026-05-04 14:44 47.39845 -120.37368 27070 ft 471 kts 99°
2026-05-04 14:44 47.39040 -120.32676 27512 ft 470 kts 101°
2026-05-04 14:44 47.38215 -120.28005 27941 ft 469 kts 101°
2026-05-04 14:44 47.37400 -120.23361 28361 ft 467 kts 101°
2026-05-04 14:45 47.36599 -120.18782 28773 ft 466 kts 100°
2026-05-04 14:45 47.35792 -120.14162 29153 ft 465 kts 100°
2026-05-04 14:45 47.34988 -120.09553 29539 ft 463 kts 100°
2026-05-04 14:45 47.34186 -120.04959 29894 ft 462 kts 100°
2026-05-04 14:46 47.33383 -120.00374 30198 ft 461 kts 100°
2026-05-04 14:46 47.32578 -119.95807 30461 ft 460 kts 100°
2026-05-04 14:46 47.31773 -119.91254 30750 ft 459 kts 100°
2026-05-04 14:46 47.30969 -119.86711 30851 ft 458 kts 100°
2026-05-04 14:47 47.29359 -119.77640 30850 ft 456 kts 100°
2026-05-04 14:47 47.27744 -119.68596 30848 ft 456 kts 100°
2026-05-04 14:48 47.26127 -119.59560 30851 ft 456 kts 100°
2026-05-04 14:48 47.24501 -119.50530 30850 ft 457 kts 100°
2026-05-04 14:49 47.22873 -119.41554 30858 ft 456 kts 100°
2026-05-04 14:49 47.21134 -119.32500 30858 ft 460 kts 105°
2026-05-04 14:50 47.18215 -119.24018 30864 ft 468 kts 115°
2026-05-04 14:50 47.15014 -119.15761 30855 ft 468 kts 115°
2026-05-04 14:51 47.11808 -119.07436 30840 ft 468 kts 115°
2026-05-04 14:51 47.08611 -118.99117 30808 ft 468 kts 115°
2026-05-04 14:52 47.05411 -118.90813 30803 ft 467 kts 115°
2026-05-04 14:52 47.02209 -118.82522 30802 ft 467 kts 115°
2026-05-04 14:53 46.99034 -118.74300 30800 ft 467 kts 115°
2026-05-04 14:53 46.95828 -118.66028 30796 ft 467 kts 115°
2026-05-04 14:54 46.92605 -118.57760 30799 ft 467 kts 115°
2026-05-04 14:54 46.89379 -118.49506 30809 ft 467 kts 115°
2026-05-04 14:55 46.86157 -118.41298 30795 ft 468 kts 115°
2026-05-04 14:55 46.82906 -118.33034 30793 ft 468 kts 115°
2026-05-04 14:56 46.79653 -118.24787 30799 ft 468 kts 115°
2026-05-04 14:56 46.76418 -118.16616 30796 ft 468 kts 116°
2026-05-04 14:57 46.73157 -118.08403 30787 ft 468 kts 116°
2026-05-04 14:57 46.69880 -118.00187 30799 ft 468 kts 116°
2026-05-04 14:58 46.66603 -117.91985 30796 ft 468 kts 116°
2026-05-04 14:58 46.63319 -117.83784 30796 ft 468 kts 116°
2026-05-04 14:59 46.60048 -117.75644 30792 ft 468 kts 116°
2026-05-04 15:00 46.55094 -117.63358 30817 ft 469 kts 116°
2026-05-04 15:00 46.51803 -117.55224 30823 ft 470 kts 116°
2026-05-04 15:01 46.46815 -117.42944 30817 ft 470 kts 116°
2026-05-04 15:01 46.43490 -117.34791 30819 ft 469 kts 116°
2026-05-04 15:02 46.40178 -117.26693 30823 ft 470 kts 117°
2026-05-04 15:02 46.36836 -117.18544 30884 ft 470 kts 117°
2026-05-04 15:03 46.33482 -117.10406 30887 ft 470 kts 117°
2026-05-04 15:03 46.30128 -117.02269 30889 ft 470 kts 117°
2026-05-04 15:04 46.26789 -116.94190 30886 ft 470 kts 117°
2026-05-04 15:04 46.23641 -116.86600 30871 ft 471 kts 117°
2026-05-04 15:05 46.20265 -116.78464 31142 ft 472 kts 117°
2026-05-04 15:05 46.18573 -116.74408 31447 ft 471 kts 117°
2026-05-04 15:05 46.16882 -116.70363 31702 ft 471 kts 117°
2026-05-04 15:06 46.15192 -116.66326 31951 ft 470 kts 117°
2026-05-04 15:06 46.13501 -116.62289 32211 ft 469 kts 117°
2026-05-04 15:06 46.11812 -116.58258 32454 ft 469 kts 117°
2026-05-04 15:07 46.08444 -116.50241 32903 ft 467 kts 116°
2026-05-04 15:07 46.05079 -116.42259 32886 ft 466 kts 117°
2026-05-04 15:08 46.01723 -116.34330 32872 ft 466 kts 117°
2026-05-04 15:08 45.98340 -116.26358 32871 ft 466 kts 117°
2026-05-04 15:09 45.94962 -116.18413 32934 ft 465 kts 117°
2026-05-04 15:09 45.91577 -116.10473 32946 ft 466 kts 117°
2026-05-04 15:10 45.86500 -115.98606 32931 ft 467 kts 117°
2026-05-04 15:11 45.81389 -115.86718 32919 ft 467 kts 117°
2026-05-04 15:11 45.77972 -115.78796 32914 ft 467 kts 117°
2026-05-04 15:12 45.74549 -115.70886 32914 ft 467 kts 117°
2026-05-04 15:12 45.71123 -115.62989 32914 ft 467 kts 117°
2026-05-04 15:13 45.67690 -115.55094 32933 ft 467 kts 118°
2026-05-04 15:13 45.64279 -115.47269 32936 ft 467 kts 118°
2026-05-04 15:14 45.60837 -115.39400 32945 ft 469 kts 118°
2026-05-04 15:14 45.57364 -115.31498 32940 ft 470 kts 118°
2026-05-04 15:15 45.53882 -115.23593 32939 ft 470 kts 118°
2026-05-04 15:15 45.50392 -115.15694 32928 ft 470 kts 118°
2026-05-04 15:16 45.45746 -115.05207 32929 ft 470 kts 118°
2026-05-04 15:17 45.40508 -114.93406 32912 ft 469 kts 119°
2026-05-04 15:17 45.35268 -114.81643 32914 ft 469 kts 119°
2026-05-04 15:18 45.31769 -114.73818 32908 ft 469 kts 119°
2026-05-04 15:19 45.26484 -114.62080 32905 ft 471 kts 120°
2026-05-04 15:19 45.21373 -114.50775 32887 ft 472 kts 120°
2026-05-04 15:20 45.17821 -114.42943 32880 ft 472 kts 120°
2026-05-04 15:20 45.14275 -114.35118 32876 ft 472 kts 120°
2026-05-04 15:21 45.10741 -114.27339 32872 ft 472 kts 120°
2026-05-04 15:22 45.05406 -114.15607 32865 ft 472 kts 120°
2026-05-04 15:22 44.99971 -114.03966 32862 ft 473 kts 121°
2026-05-04 15:23 44.96292 -113.96347 32864 ft 472 kts 122°
2026-05-04 15:23 44.92582 -113.88685 32860 ft 473 kts 122°
2026-05-04 15:24 44.85118 -113.73327 32873 ft 474 kts 122°
2026-05-04 15:25 44.81378 -113.65663 32873 ft 474 kts 122°
2026-05-04 15:26 44.75795 -113.54251 32869 ft 474 kts 122°
2026-05-04 15:26 44.70171 -113.42812 32861 ft 474 kts 123°
2026-05-04 15:27 44.64525 -113.31370 32869 ft 475 kts 123°
2026-05-04 15:28 44.58890 -113.19996 32867 ft 475 kts 123°
2026-05-04 15:29 44.53220 -113.08589 32858 ft 475 kts 123°
2026-05-04 15:30 44.40141 -112.82466 32846 ft 475 kts 123°
2026-05-04 15:31 44.34451 -112.71171 32833 ft 475 kts 123°
2026-05-04 15:32 44.24923 -112.52358 32817 ft 473 kts 124°
2026-05-04 15:34 44.15416 -112.33706 32814 ft 473 kts 124°
2026-05-04 15:34 44.09711 -112.22551 32797 ft 470 kts 123°
2026-05-04 15:35 44.05191 -112.10486 32839 ft 469 kts 114°
2026-05-04 15:36 44.00927 -111.98303 32873 ft 469 kts 114°
2026-05-04 15:36 43.98068 -111.90206 32912 ft 466 kts 115°
2026-05-04 15:37 43.95202 -111.82114 32916 ft 467 kts 115°
2026-05-04 15:37 43.92328 -111.74018 32916 ft 467 kts 115°
2026-05-04 15:38 43.89447 -111.65933 32932 ft 467 kts 115°
2026-05-04 15:38 43.86560 -111.57864 32907 ft 465 kts 115°
2026-05-04 15:39 43.83683 -111.49839 32862 ft 465 kts 115°
2026-05-04 15:40 43.79371 -111.37839 32921 ft 465 kts 115°
2026-05-04 15:40 43.76477 -111.29817 32950 ft 467 kts 116°
2026-05-04 15:41 43.73572 -111.21789 32984 ft 464 kts 116°
2026-05-04 15:41 43.70673 -111.13813 32991 ft 465 kts 116°
2026-05-04 15:42 43.67758 -111.05840 32987 ft 465 kts 116°
2026-05-04 15:42 43.64852 -110.97912 32972 ft 465 kts 116°
2026-05-04 15:43 43.61935 -110.89951 32993 ft 464 kts 116°
2026-05-04 15:43 43.59027 -110.82004 32931 ft 463 kts 116°
2026-05-04 15:44 43.56106 -110.74044 32945 ft 466 kts 116°
2026-05-04 15:44 43.53165 -110.66084 32936 ft 466 kts 116°
2026-05-04 15:45 43.50220 -110.58134 32924 ft 466 kts 116°
2026-05-04 15:45 43.47271 -110.50203 32920 ft 464 kts 116°
2026-05-04 15:46 43.44347 -110.42343 32907 ft 464 kts 116°
2026-05-04 15:46 43.41395 -110.34443 32895 ft 464 kts 116°
2026-05-04 15:47 43.38436 -110.26546 32899 ft 465 kts 117°
2026-05-04 15:47 43.35462 -110.18628 32885 ft 465 kts 117°
2026-05-04 15:48 43.32495 -110.10740 32864 ft 465 kts 117°
2026-05-04 15:48 43.28026 -109.98927 32868 ft 465 kts 117°
2026-05-04 15:49 43.25058 -109.91101 32862 ft 465 kts 117°
2026-05-04 15:49 43.22072 -109.83256 32852 ft 463 kts 117°
2026-05-04 15:50 43.19079 -109.75416 32846 ft 466 kts 117°
2026-05-04 15:50 43.16062 -109.67546 32841 ft 466 kts 117°
2026-05-04 15:51 43.13049 -109.59683 32833 ft 466 kts 117°
2026-05-04 15:51 43.10026 -109.51828 32828 ft 466 kts 117°
2026-05-04 15:52 43.07003 -109.43978 32830 ft 467 kts 117°
2026-05-04 15:52 43.03968 -109.36123 32818 ft 468 kts 117°
2026-05-04 15:53 43.00919 -109.28262 32816 ft 468 kts 118°
2026-05-04 15:53 42.97868 -109.20409 32807 ft 468 kts 118°
2026-05-04 15:54 42.94819 -109.12582 32812 ft 466 kts 118°
2026-05-04 15:54 42.91744 -109.04739 32802 ft 469 kts 118°
2026-05-04 15:55 42.88663 -108.96881 32793 ft 469 kts 118°
2026-05-04 15:55 42.85577 -108.89037 32791 ft 469 kts 118°
2026-05-04 15:56 42.82491 -108.81210 32776 ft 467 kts 118°
2026-05-04 15:56 42.79407 -108.73402 32935 ft 470 kts 118°
2026-05-04 15:57 42.76309 -108.65596 32940 ft 471 kts 118°
2026-05-04 15:57 42.73182 -108.57745 32911 ft 471 kts 118°
2026-05-04 15:58 42.70062 -108.49897 32862 ft 470 kts 119°
2026-05-04 15:58 42.66950 -108.42093 32827 ft 470 kts 119°
2026-05-04 15:59 42.63817 -108.34288 32776 ft 471 kts 119°
2026-05-04 15:59 42.60677 -108.26468 32752 ft 471 kts 119°
2026-05-04 16:00 42.57527 -108.18655 32750 ft 472 kts 119°
2026-05-04 16:00 42.54372 -108.10843 32751 ft 473 kts 119°
2026-05-04 16:01 42.51229 -108.03075 32744 ft 473 kts 120°
2026-05-04 16:01 42.48647 -107.96477 32741 ft 473 kts 118°
2026-05-04 16:02 42.45660 -107.88586 32740 ft 473 kts 118°
2026-05-04 16:03 42.41141 -107.76685 32730 ft 475 kts 118°
2026-05-04 16:03 42.38096 -107.68744 32751 ft 476 kts 118°
2026-05-04 16:04 42.35057 -107.60797 32745 ft 476 kts 118°
2026-05-04 16:04 42.30494 -107.48927 32752 ft 475 kts 118°